This demonstration page uses our WeatherBlox Daily Observations layout. Learn more.

Left ArrowRight Arrow

40.92945, -100.16068

Hourly Observations for February 22, 2022

Temp ( °F °C ) Dew Point ( °F °C ) Humidity (%) Winds ( mph kmh ) Pressure ( in mb ) Visibility ( mi km ) Precip ( " mm )
12:15 am 00:15 Windy with Snow Likely 1 -17.1 -7 -21.8 67 67 N 24 39 30.29 1026 5 8 0.00 0.00
12:35 am 00:35 Windy with Snow Likely 1 -17.3 -7 -21.6 69 69 N 26 43 30.30 1026 5 8 0.00 0.00
12:55 am 00:55 Windy with Snow Likely 1 -17.5 -8 -22.1 68 68 N 24 39 30.30 1026 7 11 0.00 0.00
1:15 am 01:15 Cloudy 0 -17.7 -8 -22.2 68 68 NNW 23 37 30.31 1026 10 16 0.00 0.00
1:35 am 01:35 Cloudy 0 -18 -9 -22.6 67 67 N 25 41 30.31 1026 10 16 0.00 0.00
1:55 am 01:55 Cloudy 0 -18 -9 -22.6 67 67 NNW 26 43 30.35 1028 10 16 0.00 0.00
2:15 am 02:15 Cloudy 0 -18 -9 -23 65 65 NNW 23 37 30.34 1027 10 16 0.00 0.00
2:35 am 02:35 Cloudy -1 -18.1 -9 -22.6 68 68 NNW 26 43 30.34 1027 10 16 0.00 0.00
2:55 am 02:55 Windy with Snow Likely -1 -18.2 -9 -22.6 69 69 NNW 30 48 30.35 1028 7 11 0.00 0.00
3:15 am 03:15 Windy with Snow Likely -1 -18.2 -8 -22.2 71 71 NNW 24 39 30.35 1028 5 8 0.00 0.00
3:35 am 03:35 Windy with Snow Likely -1 -18.5 -8 -22.3 72 72 NNW 25 41 30.36 1028 4 6 0.00 0.00
3:55 am 03:55 Windy with Snow Likely -2 -18.7 -8 -22.2 74 74 NNW 26 43 30.37 1028 3 5 0.00 0.00
4:15 am 04:15 Windy with Snow Likely -2 -18.8 -9 -22.5 73 73 N 24 39 30.37 1028 5 8 0.00 0.00
4:35 am 04:35 Windy with Snow Likely -2 -19 -9 -22.6 73 73 N 23 37 30.37 1028 5 8 0.00 0.00
4:55 am 04:55 Windy with Snow Likely -2 -19 -10 -23.1 70 70 NNW 21 33 30.40 1030 7 11 0.00 0.00
5:15 am 05:15 Windy with Snow Likely -2 -18.8 -9 -23 70 70 NNW 22 35 30.41 1030 7 11 0.00 0.00
5:35 am 05:35 Windy with Snow Likely -1 -18.6 -9 -22.6 71 71 NNW 25 41 30.41 1030 7 11 0.00 0.00
5:55 am 05:55 Windy with Snow Likely -2 -18.9 -10 -23.2 69 69 N 21 33 30.39 1029 5 8 0.00 0.00
6:15 am 06:15 Windy with Snow Likely -2 -18.9 -9 -23 70 70 NNW 23 37 30.43 1030 5 8 0.00 0.00
6:35 am 06:35 Windy with Snow Likely -2 -19 -10 -23.3 69 69 NNW 21 33 30.43 1031 5 8 0.00 0.00
6:55 am 06:55 Windy with Snow Likely -2 -19 -10 -23.5 68 68 NNW 23 37 30.43 1031 7 11 0.00 0.00
7:15 am 07:15 Windy with Snow Likely -2 -19.1 -11 -23.7 67 67 NNW 24 39 30.44 1031 10 16 0.00 0.00
7:35 am 07:35 Windy with Snow Likely -3 -19.2 -11 -24.1 65 65 NNW 25 41 30.47 1032 10 16 0.00 0.00
7:55 am 07:55 Windy with Snow Likely -3 -19.2 -12 -24.2 65 65 NNW 26 43 30.49 1033 10 16 0.00 0.00
8:15 am 08:15 Windy with Snow Likely -2 -19.1 -11 -24 65 65 NNW 23 37 30.50 1033 7 11 0.00 0.00
8:35 am 08:35 Windy with Snow Likely -2 -19 -11 -24 65 65 NNW 26 43 30.50 1033 5 8 0.00 0.00
8:55 am 08:55 Windy with Snow Likely -2 -18.7 -11 -23.7 65 65 NNW 23 37 30.53 1034 7 11 0.00 0.00
9:15 am 09:15 Windy with Snow Likely -1 -18.5 -10 -23.5 65 65 NNW 26 43 30.53 1034 10 16 0.00 0.00
9:35 am 09:35 Windy with Snow Likely -1 -18.3 -10 -23.3 65 65 NNW 24 39 30.52 1034 10 16 0.00 0.00
9:55 am 09:55 Cloudy 0 -17.9 -9 -22.9 65 65 NNW 23 37 30.54 1034 10 16 0.00 0.00
10:15 am 10:15 Cloudy 1 -17.5 -9 -22.6 65 65 NNW 23 37 30.53 1034 10 16 0.00 0.00
10:35 am 10:35 Cloudy 1 -17.1 -9 -22.5 63 63 NNW 23 37 30.53 1034 10 16 0.00 0.00
10:55 am 10:55 Windy with Snow Likely 2 -16.4 -7 -21.7 64 64 NNW 26 43 30.51 1033 10 16 0.00 0.00
11:15 am 11:15 Cloudy 4 -15.7 -6 -21.2 63 63 NNW 28 44 30.50 1033 10 16 0.00 0.00
11:35 am 11:35 Cloudy 5 -15.1 -6 -20.9 62 62 NNW 26 43 30.50 1033 10 16 0.00 0.00
11:55 am 11:55 Cloudy 6 -14.4 -5 -20.6 60 60 NNW 26 43 30.49 1033 10 16 0.00 0.00
12:15 pm 12:15 Cloudy 7 -13.9 -5 -20.6 57 57 NNW 22 35 30.52 1033 10 16 0.00 0.00
12:30 pm 12:30 Cloudy 8 -13.5 -5 -20.5 56 56 N 24 39 30.49 1033 10 16 0.00 0.00
12:55 pm 12:55 Cloudy 8 -13.3 -6 -21 53 53 NNW 21 33 30.51 1033 10 16 0.00 0.00
1:15 pm 13:15 Cloudy 9 -12.7 -6 -20.9 51 51 NNW 24 39 30.50 1033 10 16 0.00 0.00
1:35 pm 13:35 Partly Cloudy 10 -12.1 -6 -20.9 48 48 N 24 39 30.50 1033 10 16 0.00 0.00
1:55 pm 13:55 Sunny 11 -11.8 -5 -20.8 48 48 NNW 25 41 30.49 1033 10 16 0.00 0.00
2:15 pm 14:15 Partly Cloudy 12 -11.2 -5 -20.5 47 47 NNW 23 37 30.50 1033 10 16 0.00 0.00
2:35 pm 14:35 Partly Cloudy 12 -10.9 -5 -20.5 45 45 NNW 22 35 30.50 1033 10 16 0.00 0.00
2:55 pm 14:55 Partly Cloudy 12 -11.2 -5 -20.8 45 45 N 22 35 30.52 1033 10 16 0.00 0.00
3:15 pm 15:15 Partly Cloudy 12 -11 -5 -20.8 45 45 N 24 39 30.51 1033 10 16 0.00 0.00
3:35 pm 15:35 Sunny 12 -11.1 -5 -20.8 45 45 N 21 33 30.52 1034 10 16 0.00 0.00
3:55 pm 15:55 Partly Cloudy 12 -11.1 -6 -20.9 45 45 N 23 37 30.53 1034 10 16 0.00 0.00
4:15 pm 16:15 Partly Cloudy 11 -11.7 -6 -21.1 46 46 N 23 37 30.56 1035 10 16 0.00 0.00
4:35 pm 16:35 Cloudy 10 -12.1 -6 -21.2 47 47 N 26 43 30.58 1035 10 16 0.00 0.00
4:55 pm 16:55 Cloudy 10 -12.4 -6 -21.1 49 49 N 21 33 30.59 1036 10 16 0.00 0.00
5:15 pm 17:15 Cloudy 9 -12.7 -6 -21.3 49 49 N 23 37 30.59 1036 10 16 0.00 0.00
5:35 pm 17:35 Cloudy 9 -13 -7 -21.5 49 49 N 18 30 30.62 1037 10 16 0.00 0.00
5:55 pm 17:55 Cloudy 8 -13.6 -7 -21.8 50 50 N 20 31 30.64 1038 10 16 0.00 0.00
6:15 pm 18:15 Cloudy 7 -14.1 -8 -22 52 52 N 15 24 30.66 1038 10 16 0.00 0.00
6:35 pm 18:35 Mostly Cloudy 6 -14.6 -8 -22.2 53 53 N 21 33 30.68 1039 10 16 0.00 0.00
6:55 pm 18:55 Cloudy 5 -15.1 -8 -22.3 54 54 N 18 30 30.70 1040 10 16 0.00 0.00
7:15 pm 19:15 Cloudy 4 -15.5 -8 -22.3 56 56 N 17 28 30.72 1040 10 16 0.00 0.00
7:35 pm 19:35 Cloudy 4 -15.6 -9 -22.5 56 56 N 16 26 30.75 1041 10 16 0.00 0.00
7:55 pm 19:55 Partly Cloudy 3 -16 -9 -22.8 56 56 N 20 31 30.77 1042 10 16 0.00 0.00
8:15 pm 20:15 Partly Cloudy 3 -16.3 -9 -23 57 57 N 18 30 30.78 1042 10 16 0.00 0.00
8:35 pm 20:35 Partly Cloudy 2 -16.5 -9 -23 57 57 N 14 22 30.79 1043 10 16 0.00 0.00
8:55 pm 20:55 Clear 2 -16.5 -9 -23 57 57 NNW 22 35 30.79 1043 10 16 0.00 0.00
9:15 pm 21:15 Clear 1 -17.1 -10 -23.3 59 59 N 16 26 30.80 1043 10 16 0.00 0.00
9:35 pm 21:35 Mostly Cloudy 1 -17.5 -10 -23.5 60 60 N 17 28 30.81 1043 10 16 0.00 0.00
9:55 pm 21:55 Cloudy 0 -17.6 -10 -23.6 60 60 N 20 31 30.82 1044 10 16 0.00 0.00
10:15 pm 22:15 Cloudy 0 -18 -11 -23.7 61 61 N 14 22 30.82 1044 10 16 0.00 0.00
10:35 pm 22:35 Cloudy 0 -18 -11 -24 60 60 N 17 28 30.82 1044 10 16 0.00 0.00
10:55 pm 22:55 Cloudy -1 -18.2 -11 -24 61 61 N 16 26 30.83 1044 10 16 0.00 0.00
11:15 pm 23:15 Cloudy -1 -18.5 -11 -24 62 62 N 15 24 30.83 1044 10 16 0.00 0.00
11:35 pm 23:35 Partly Cloudy -2 -18.8 -11 -24 64 64 NNW 16 26 30.84 1044 10 16 0.00 0.00
11:55 pm 23:55 Partly Cloudy -2 -18.8 -11 -24 64 64 NNW 17 28 30.85 1045 10 16 0.00 0.00

Powered by AerisWeather